Location: Bethera
(33.2010°N, 79.7880°W)
Time: 04:17:18
(UTC-04:00)

Amateur Radio Satellites - All Passes

Search period start: 28 July 2014 03:47
Search period end: 29 July 2014 03:47
Location: Bethera, 33.2010°N, 79.7880°W

Satellite Date Start Highest point End Downlink Frequencies (MHz)
Time Altitude Azimuth
AO-Echo 28 Jul 03:49:43 03:54:40 58° 286° (WNW) 03:59:27 ?
Oscar 16 28 Jul 03:52:53 03:57:01 25° 291° (WNW) 04:01:09 437.025 USB, Beacon 2401.1428
OPAL 28 Jul 03:56:18 04:00:44 34° 69° (ENE) 04:05:10 ?
AO-7 28 Jul 03:59:10 04:01:21 11° 91° (E) 04:03:31 29.400 - 29.500 MHz
ITAMSAT 1 28 Jul 04:10:52 04:15:38 39° 289° (WNW) 04:20:23 435.822 SSB
TMSAT-1 28 Jul 04:21:48 04:27:06 74° 102° (ESE) 04:32:22 436.925 FM
AO-27 28 Jul 04:30:17 04:34:26 25° 292° (WNW) 04:38:35 436.795 MHz FM
Uribyol 2 28 Jul 04:31:13 04:35:14 23° 292° (WNW) 04:39:14 436.500 FM
Oscar 10/S400 28 Jul 04:33:07 05:51:56 58° 226° (SW) 13:10:41 145.825 - 145.975 CW/USB, Beacon 145.810 USB
PANSAT 28 Jul 04:35:46 04:37:58 15° 158° (SSE) 04:40:09 not established
Gurwin Techsat 1B 28 Jul 04:45:41 04:50:43 45° 288° (WNW) 04:55:45 435.225 FM
JAS-1B 28 Jul 05:00:45 05:09:21 44° 294° (WNW) 05:16:47 435.800 - 435.900 CW/SSB
KITSAT 1 28 Jul 05:11:38 05:16:00 16° 101° (E) 05:20:23 435.175 FM
OPAL 28 Jul 05:35:55 05:39:38 21° 262° (W) 05:43:21 ?
Uosat F 28 Jul 05:45:29 05:50:30 76° 285° (WNW) 05:55:29 435.120 FM
AO-7 28 Jul 05:46:45 05:55:06 79° 106° (ESE) 06:03:23 29.400 - 29.500 MHz
Lituanica SAT-1 28 Jul 06:04:15 06:05:41 74° 44° (NE) 06:07:05 437.275 MHz beacon
TMSAT-1 28 Jul 06:04:39 06:06:19 12° 297° (WNW) 06:07:59 436.925 FM
ISS 28 Jul 06:14:09 06:15:29 12° 29° (NNE) 06:16:49 145.800 FM
PANSAT 28 Jul 06:14:11 06:17:41 33° 170° (S) 06:21:11 not established
JAS-2 28 Jul 06:16:56 06:19:03 12° 89° (E) 06:21:06 435.800 - 435.900 CW/SSB, 435.910 FM
STRAND 1 28 Jul 06:18:38 06:22:12 19° 67° (ENE) 06:25:46 ?
KITSAT 1 28 Jul 07:02:15 07:10:22 85° 296° (WNW) 07:18:31 435.175 FM
Hamsat 28 Jul 07:13:25 07:17:44 75° 101° (ESE) 07:22:03 145.90 MHz
MaSat-1 28 Jul 07:15:46 07:20:34 34° 61° (ENE) 07:25:04 437.345 MHz
AO-7 28 Jul 07:41:21 07:46:56 20° 303° (WNW) 07:52:31 29.400 - 29.500 MHz
ISS 28 Jul 07:49:14 07:52:36 85° 225° (SW) 07:55:57 145.800 FM
Saudisat 1A 28 Jul 07:51:43 07:56:00 53° 115° (ESE) 08:00:19 436.775 MHz
PANSAT 28 Jul 07:53:56 07:57:35 40° 183° (S) 08:01:13 not established
STRAND 1 28 Jul 07:56:11 08:01:02 42° 261° (W) 08:05:54 ?
JAS-2 28 Jul 07:59:01 08:04:48 63° 286° (WNW) 08:10:02 435.800 - 435.900 CW/SSB, 435.910 FM
SO-67 28 Jul 08:20:37 08:24:05 69° 100° (E) 08:27:32 435.3500 MHz FM
MaSat-1 28 Jul 08:53:29 08:57:41 25° 257° (WSW) 09:01:37 437.345 MHz
KITSAT 1 28 Jul 09:01:44 09:06:55 18° 316° (NW) 09:12:08 435.175 FM
UKube-1 28 Jul 09:27:16 09:27:58 10° 93° (E) 09:28:41 145.840 MHz, 145.915 MHz
HO-68 28 Jul 09:27:42 09:33:35 27° 97° (E) 09:39:26 435.675 MHz FM
Saudisat 1A 28 Jul 09:33:27 09:35:53 14° 311° (NW) 09:38:19 436.775 MHz
PANSAT 28 Jul 09:34:15 09:37:25 24° 195° (SSW) 09:40:36 not established
Sapphire 28 Jul 10:05:27 10:09:36 22° 54° (NE) 10:13:43 437.095 MHz 1200 baud AX-25 AFSK
Oscar 11 28 Jul 10:11:12 10:14:15 19° 95° (E) 10:17:18 145.825 FM, Beacon 2401.500 USB
PCSat 28 Jul 10:38:14 10:43:26 45° 60° (ENE) 10:48:35 145.825 MHz
UKube-1 28 Jul 11:00:12 11:04:26 52° 286° (WNW) 11:08:37 145.840 MHz, 145.915 MHz
HO-68 28 Jul 11:14:39 11:21:23 47° 291° (WNW) 11:28:07 435.675 MHz FM
Oscar 11 28 Jul 11:46:39 11:50:25 29° 288° (WNW) 11:54:10 145.825 FM, Beacon 2401.500 USB
Sapphire 28 Jul 11:48:03 11:53:11 44° 250° (WSW) 11:58:17 437.095 MHz 1200 baud AX-25 AFSK
FUNcube-1 28 Jul 12:05:30 12:09:33 50° 285° (WNW) 12:13:38 145.950 - 145.970 MHz USB
PCSat 28 Jul 12:22:40 12:26:26 19° 255° (WSW) 12:30:12 145.825 MHz
SO-50 28 Jul 12:24:11 12:28:05 31° 112° (ESE) 12:32:02 436.795 FM
Oscar 19 28 Jul 12:59:54 13:02:48 15° 65° (ENE) 13:05:42 437.125 CW, 437.150 USB
AO-Echo 28 Jul 13:22:48 13:24:48 12° 64° (ENE) 13:26:49 ?
Oscar 16 28 Jul 13:26:23 13:30:48 30° 70° (ENE) 13:35:14 437.025 USB, Beacon 2401.1428
RS-15 28 Jul 13:32:08 13:43:04 60° 112° (ESE) 13:53:41 29.354 - 29.394 USB, Beacon 29.352 USB
ITAMSAT 1 28 Jul 13:46:32 13:50:21 21° 67° (ENE) 13:54:09 435.822 SSB
JAS-1B 28 Jul 13:49:22 13:56:10 25° 59° (ENE) 14:03:27 435.800 - 435.900 CW/SSB
AO-27 28 Jul 14:04:39 14:09:14 32° 70° (ENE) 14:13:50 436.795 MHz FM
SO-50 28 Jul 14:05:07 14:08:38 22° 308° (NW) 14:12:12 436.795 FM
Uribyol 2 28 Jul 14:05:11 14:09:50 34° 71° (ENE) 14:14:28 436.500 FM
Gurwin Techsat 1B 28 Jul 14:24:21 14:28:03 20° 67° (ENE) 14:31:45 435.225 FM
UOSAT-12 28 Jul 14:28:25 14:32:42 42° 114° (ESE) 14:37:06 437.025 FM, 437.400 FM
Oscar 19 28 Jul 14:36:41 14:41:39 52° 260° (W) 14:46:39 437.125 CW, 437.150 USB
AO-7 28 Jul 14:54:02 14:57:34 13° 53° (NE) 15:01:05 29.400 - 29.500 MHz
AO-Echo 28 Jul 14:57:36 15:02:52 73° 258° (WSW) 15:08:12 ?
KITSAT 1 28 Jul 15:01:13 15:07:31 24° 48° (NE) 15:13:45 435.175 FM
Oscar 16 28 Jul 15:05:56 15:10:05 25° 264° (W) 15:14:16 437.025 USB, Beacon 2401.1428
ITAMSAT 1 28 Jul 15:24:40 15:29:31 39° 261° (W) 15:34:24 435.822 SSB
JAS-1B 28 Jul 15:37:00 15:45:29 75° 258° (WSW) 15:55:15 435.800 - 435.900 CW/SSB
TMSAT-1 28 Jul 15:38:17 15:43:33 76° 76° (ENE) 15:48:52 436.925 FM
AO-27 28 Jul 15:44:29 15:48:42 25° 264° (W) 15:52:56 436.795 MHz FM
Uribyol 2 28 Jul 15:45:13 15:49:17 23° 264° (W) 15:53:23 436.500 FM
RS-15 28 Jul 15:45:55 15:55:49 36° 312° (NW) 16:05:38 29.354 - 29.394 USB, Beacon 29.352 USB
Gurwin Techsat 1B 28 Jul 16:02:37 16:07:38 43° 261° (W) 16:12:42 435.225 FM
UOSAT-12 28 Jul 16:09:47 16:13:02 19° 309° (NW) 16:16:19 437.025 FM, 437.400 FM
OPAL 28 Jul 16:11:54 16:14:14 13° 95° (E) 16:16:33 ?
Saudisat 1A 28 Jul 16:23:47 16:26:13 14° 49° (NE) 16:28:39 436.775 MHz
AO-7 28 Jul 16:40:36 16:48:54 74° 70° (ENE) 16:57:14 29.400 - 29.500 MHz
Uosat F 28 Jul 16:54:23 16:59:26 86° 257° (WSW) 17:04:30 435.120 FM
KITSAT 1 28 Jul 16:55:32 17:03:34 71° 247° (WSW) 17:11:32 435.175 FM
JAS-1B 28 Jul 17:34:26 17:37:31 12° 276° (W) 17:40:43 435.800 - 435.900 CW/SSB
OPAL 28 Jul 17:48:23 17:53:22 58° 288° (WNW) 17:58:24 ?
Saudisat 1A 28 Jul 18:01:49 18:06:05 52° 245° (WSW) 18:10:20 436.775 MHz
Hamsat 28 Jul 18:03:06 18:06:43 30° 72° (ENE) 18:10:22 145.90 MHz
JAS-2 28 Jul 18:04:08 18:11:15 40° 70° (ENE) 18:18:02 435.800 - 435.900 CW/SSB, 435.910 FM
RS-15 28 Jul 18:10:42 18:12:57 11° 344° (NNW) 18:15:12 29.354 - 29.394 USB, Beacon 29.352 USB
AO-7 28 Jul 18:36:36 18:42:13 20° 265° (W) 18:47:53 29.400 - 29.500 MHz
SO-67 28 Jul 18:51:48 18:53:08 12° 70° (ENE) 18:54:28 435.3500 MHz FM
Hamsat 28 Jul 19:40:00 19:42:42 17° 266° (W) 19:45:25 145.90 MHz
JAS-2 28 Jul 19:48:57 19:56:05 38° 263° (W) 20:03:00 435.800 - 435.900 CW/SSB, 435.910 FM
HO-68 28 Jul 19:54:55 19:58:07 14° 58° (ENE) 20:01:19 435.675 MHz FM
STRAND 1 28 Jul 20:10:47 20:15:55 87° 284° (WNW) 20:21:00 ?
SO-67 28 Jul 20:22:53 20:25:54 28° 263° (W) 20:28:56 435.3500 MHz FM
RS-15 28 Jul 20:28:12 20:32:57 13° 24° (NNE) 20:37:43 29.354 - 29.394 USB, Beacon 29.352 USB
SO-50 28 Jul 21:01:13 21:03:02 12° 47° (NE) 21:04:51 436.795 FM
MaSat-1 28 Jul 21:03:25 21:06:36 26° 103° (ESE) 21:10:13 437.345 MHz
HO-68 28 Jul 21:37:35 21:44:46 86° 74° (ENE) 21:51:58 435.675 MHz FM
UKube-1 28 Jul 21:51:12 21:55:33 78° 76° (ENE) 21:59:56 145.840 MHz, 145.915 MHz
Oscar 11 28 Jul 22:36:52 22:41:07 64° 259° (W) 22:45:24 145.825 FM, Beacon 2401.500 USB
RS-15 28 Jul 22:38:32 22:49:06 47° 53° (NE) 22:59:59 29.354 - 29.394 USB, Beacon 29.352 USB
SO-50 28 Jul 22:39:20 22:44:07 79° 243° (WSW) 22:48:57 436.795 FM
MaSat-1 28 Jul 22:40:46 22:43:52 21° 303° (WNW) 22:47:20 437.345 MHz
ISS 28 Jul 22:52:32 22:55:14 23° 129° (SE) 22:57:57 145.800 FM
FUNcube-1 28 Jul 22:57:29 23:01:49 73° 77° (ENE) 23:06:05 145.950 - 145.970 MHz USB
UOSAT-12 28 Jul 23:03:21 23:05:50 14° 48° (NE) 23:08:18 437.025 FM, 437.400 FM
HO-68 28 Jul 23:30:00 23:33:06 13° 268° (W) 23:36:13 435.675 MHz FM
ISS 29 Jul 00:29:00 00:31:51 26° 323° (NW) 00:34:44 145.800 FM
UOSAT-12 29 Jul 00:41:44 00:46:24 63° 244° (WSW) 00:50:58 437.025 FM, 437.400 FM
Sapphire 29 Jul 00:42:20 00:47:24 44° 110° (ESE) 00:52:31 437.095 MHz 1200 baud AX-25 AFSK
RS-15 29 Jul 00:51:02 01:01:18 45° 251° (WSW) 01:12:01 29.354 - 29.394 USB, Beacon 29.352 USB
PCSat 29 Jul 01:15:22 01:20:46 82° 295° (WNW) 01:26:12 145.825 MHz
Oscar 16 29 Jul 01:43:23 01:46:19 15° 93° (E) 01:49:14 437.025 USB, Beacon 2401.1428
AO-27 29 Jul 02:23:02 02:26:09 16° 94° (E) 02:29:15 436.795 MHz FM
Uribyol 2 29 Jul 02:23:11 02:26:27 17° 94° (E) 02:29:42 436.500 FM
Sapphire 29 Jul 02:26:52 02:30:59 22° 306° (NW) 02:35:08 437.095 MHz 1200 baud AX-25 AFSK
Oscar 19 29 Jul 02:52:21 02:57:33 79° 103° (ESE) 03:02:43 437.125 CW, 437.150 USB
PCSat 29 Jul 03:03:52 03:04:59 11° 313° (NW) 03:06:06 145.825 MHz
AO-Echo 29 Jul 03:09:44 03:14:38 52° 100° (E) 03:19:21 ?
Oscar 16 29 Jul 03:20:54 03:25:53 51° 287° (WNW) 03:30:52 437.025 USB, Beacon 2401.1428
OPAL 29 Jul 03:23:04 03:25:51 15° 64° (ENE) 03:28:39 ?
JAS-1B 29 Jul 03:29:20 03:38:09 51° 98° (E) 03:45:35 435.800 - 435.900 CW/SSB
